Location: Waldport
(44.4270°N, 124.0680°W)
Time: 22:21:12
(UTC-07:00)

Daily predictions for brighter satellites

Satellite Brightness Start Highest point End
(mag) Time Altitude Azimuth Time Altitude Azimuth Time Altitude Azimuth
Cosmos 1674 3.8 20:02:49 10° NNE 20:05:58 24° ENE 20:09:05 10° SE
Cosmos 1818 3.6 20:01:58 10° NW 20:07:28 86° ENE 20:12:53 10° SE
Cosmos 1269 Rocket 4.3 20:02:38 10° NNW 20:07:47 50° ENE 20:12:55 10° SE
ASTRO F (AKARI) 4.4 20:04:50 10° NNE 20:08:00 80° WNW 20:11:14 10° SSW
COSMO-SKYMED 1 4.4 20:04:46 10° N 20:08:47 37° WNW 20:12:47 10° SW
Cosmos 1953 2.9 20:05:06 10° SSE 20:08:49 36° E 20:12:33 10° NNE
Cosmos 2123 Rocket 4.1 20:02:53 10° N 20:09:15 83° E 20:15:31 10° S
Cosmos 1766 3.4 20:06:43 10° S 20:10:35 82° W 20:14:30 10° N
Cosmos 158 Rocket 4.3 20:06:53 10° N 20:11:49 46° ENE 20:16:51 10° SE
Cosmos 468 4.5 20:07:03 10° NNW 20:12:18 78° ENE 20:17:34 10° SSE
BREEZE-M DEB (TANK) 4.1 20:09:44 10° S 20:12:34 23° ESE 20:18:41 10° ENE
Lacrosse 5 2.4 20:07:50 10° WSW 20:12:52 63° NW 20:17:55 10° NE
Cosmos 1408 Rocket 4.3 20:09:04 10° N 20:13:10 33° ENE 20:17:12 10° SE
Resurs 1-3 3.9 20:11:41 10° SE 20:15:54 49° ENE 20:20:09 10° N
Meteor 1-4 Rocket 2.7 20:14:39 10° S 20:17:59 45° E 20:21:20 10° NNE
Helios 1B rocket 3.6 20:16:47 10° NE 20:20:02 22° E 20:23:16 10° SSE
Lacrosse 5 rocket 1.4 20:22:46 10° NW 20:26:42 54° NE 20:29:53 13° ESE
CZ-3B DEB 3.3 20:16:44 10° WSW 20:27:44 65° NW 20:32:42 10° NE
Lacrosse 4 Rocket 4.2 20:25:28 10° W 20:28:22 19° NW 20:31:17 10° N
Cosmos 1544 3.0 20:27:23 10° S 20:31:02 88° ESE 20:34:44 10° N
Cosmos 1076 Rocket 3.4 20:28:35 10° N 20:32:51 75° E 20:37:05 10° SSE
Spot 2 Rocket 3.5 20:29:56 10° SSE 20:35:02 85° ENE 20:40:11 10° NNW
CZ-2D R/B 3.2 20:31:51 10° SSE 20:35:42 68° ENE 20:39:35 10° N
Cosmos 2098 Rocket 4.4 20:29:21 10° S 20:36:43 73° E 20:44:14 10° NNE
Okean 3 Rocket 4.1 20:33:56 10° NNW 20:38:16 61° W 20:42:38 10° S
Cosmos 1805 3.5 20:35:19 10° SSW 20:39:12 74° W 20:43:08 10° N
Cosmos 1184 Rocket 4.2 20:38:00 10° NNE 20:40:44 22° ENE 20:41:45 19° E
Cosmos 2061 Rocket 4.4 20:35:42 10° SSE 20:41:38 42° E 20:47:37 10° NNE
Helios 1A 3.1 20:40:06 10° SSE 20:44:10 54° ENE 20:48:17 10° N
Timation 2 Rocket 3.9 20:38:25 10° NNW 20:44:47 83° ENE 20:50:52 10° SSE
Cosmos 1867 3.6 20:39:58 10° SSW 20:45:26 86° ESE 20:50:56 10° NE
Cosmos 1459 Rocket 4.2 20:39:52 10° SSE 20:45:48 48° E 20:51:41 10° NNE
Cosmos 1447 Rocket 4.5 20:40:06 10° N 20:46:16 90° E 20:52:26 10° S
ALOS 3.5 20:43:39 10° S 20:48:05 44° W 20:52:34 10° NNW
Cosmos 1833 Rocket 2.8 20:46:13 10° NNW 20:51:52 80° WSW 20:57:29 10° SSE
Envisat 3.3 20:48:55 13° SE 20:53:16 48° ENE 20:58:09 10° N
Cosmos 2173 Rocket 4.1 20:48:10 10° SSE 20:54:09 55° E 21:00:17 10° NNE
Cosmos 1733 3.2 20:51:17 10° S 20:55:05 57° E 20:58:56 10° NNE
Cosmos 1470 2.7 20:53:28 10° S 20:57:24 65° E 21:01:22 10° NNE
USA 267 4.4 20:53:31 10° ENE 20:59:06 33° NNE 21:04:48 10° NW
Cosmos 1766 Rocket 3.7 20:55:48 10° NNW 21:00:18 77° W 21:04:46 10° S
Spot 1 4.3 20:57:21 10° SSE 21:02:05 87° ENE 21:07:06 10° NNW
USA 186 1.2 21:01:12 28° S 21:02:08 60° WSW 21:04:21 10° NNW
SeaSat 1 3.6 20:58:01 10° S 21:02:41 42° WSW 21:07:22 10° NW
Cosmos-2242 2.9 20:58:49 10° S 21:03:03 81° E 21:07:20 10° N
Cosmos 2278 Rocket 3.9 20:58:43 10° WSW 21:03:54 36° NW 21:09:08 10° NNE
Geosat 3.9 20:59:22 10° NNE 21:04:23 64° ESE 21:09:21 10° SSW
Cosmos 1125 Rocket 4.1 20:59:23 10° SSW 21:04:30 61° WNW 21:09:42 10° NNE
ERS-1 Rocket 3.7 21:03:15 24° ESE 21:05:22 35° ENE 21:09:55 10° N
Cosmos 1356 Rocket 3.9 21:01:37 10° N 21:05:30 38° ENE 21:06:40 31° ESE
ATLAS 5 CENTAUR R/B 1.7 21:00:53 10° SSW 21:05:35 83° SE 21:10:46 10° NE
CZ-4B DEB 4.4 21:03:19 18° SSE 21:05:53 80° ENE 21:09:29 10° N
CZ-4B DEB 2.5 21:06:14 32° SSE 21:07:29 72° ENE 21:10:36 10° N
GP-B 3.1 21:03:08 10° S 21:07:34 83° W 21:12:02 10° N
Cosmos 1340 Rocket 2.7 21:06:44 10° N 21:10:47 88° W 21:13:49 17° S
H-2A R/B 3.9 21:11:38 14° ENE 21:12:10 14° ENE 21:14:54 10° NNE
Resurs 01 Rocket 3.4 21:13:11 10° SSW 21:17:09 32° W 21:21:10 10° NNW
ISS -4.0 21:14:07 10° WSW 21:17:22 87° SSE 21:18:08 49° ENE
Meteor 1-29 2.8 21:17:04 10° NNE 21:20:34 87° ESE 21:24:03 10° SSW
Cosmos 2221 4.4 21:22:44 17° NE 21:22:44 17° NE 21:24:15 10° NE
Cosmos 2016 Rocket 3.9 21:20:10 10° S 21:26:20 70° E 21:32:27 10° NNE
Cosmos 1743 Rocket 3.7 21:27:00 10° NNW 21:31:26 76° W 21:34:04 24° S
Cosmos 2082 Rocket 3.7 21:27:05 10° NW 21:32:11 35° WSW 21:37:14 10° SSW
Cosmos 1500 Rocket 3.4 21:28:03 10° N 21:32:24 81° E 21:33:45 43° SSE
H-2A R/B 4.4 21:34:14 11° NE 21:34:14 11° NE 21:34:31 10° NE
YAOGAN 6 2.8 21:33:13 54° ENE 21:33:13 54° ENE 21:36:42 10° N
SL-14 R/B 3.1 21:29:20 10° N 21:33:13 79° E 21:33:47 62° SSE
Cosmos 1725 Rocket 4.0 21:31:58 21° SSE 21:36:06 58° E 21:42:11 10° NNE
Cosmos 1271 Rocket 4.0 21:32:35 10° SSW 21:36:25 43° WNW 21:40:17 10° N
ARGOS 3.8 21:36:47 34° ENE 21:37:16 35° ENE 21:42:05 10° N
Cosmos 2058 3.1 21:34:01 10° N 21:37:52 51° ENE 21:37:52 51° ENE
Cosmos 1328 3.9 21:36:44 10° NNW 21:40:42 74° W 21:41:41 48° SSW
Meteor 1-11 4.1 21:38:38 10° N 21:44:15 83° E 21:46:29 38° SSE
Meteor 1-16 Rocket 4.2 21:40:12 10° S 21:46:04 88° ESE 21:52:04 10° N
Cosmos 2251 Rocket 3.6 21:42:19 10° NNW 21:47:39 74° WSW 21:49:45 38° S
SL-08 R/B 4.5 21:42:37 10° S 21:49:00 87° E 21:55:28 10° N
Cosmos 2151 2.9 21:50:45 10° N 21:55:02 79° W 21:55:16 75° SW
Helios 1B rocket 4.2 21:51:41 10° N 21:55:24 33° WNW 21:59:06 10° SW
SPOT 1/Viking Rocket 4.2 21:56:05 38° ENE 21:56:05 38° ENE 22:00:33 10° N
Cosmos 1939 Rocket 3.9 21:54:46 30° SSW 21:56:19 44° W 22:00:20 10° NNW
Tsikada Rocket 3.9 21:50:22 10° N 21:56:37 84° E 21:58:55 42° SSE
Lacrosse 5 3.9 21:52:37 10° WNW 21:56:42 24° NNW 22:00:47 10° NE
SPOT 5 3.1 22:01:23 61° E 22:01:34 62° ENE 22:06:49 10° N
Cosmos 389 Rocket 3.9 22:03:04 33° NNW 22:03:04 33° NNW 22:05:14 10° N
Cosmos 1703 4.3 21:59:57 10° N 22:02:30 38° N 22:02:30 38° N
Lacrosse 5 rocket 3.2 22:02:43 10° WNW 22:05:33 20° SW 22:05:37 20° SW
Cosmos 1626 3.7 22:02:18 10° N 22:04:14 28° N 22:04:14 28° N
USA 215 3.1 22:01:34 10° NE 22:08:05 68° SE 22:14:35 10° SW
Terra 3.7 22:09:58 19° NE 22:09:58 19° NE 22:12:02 10° NNE
Meteor 2-1 Rocket 4.1 22:08:08 58° S 22:09:20 83° E 22:15:00 10° NNE
Cosmos 2369 Rocket 2.3 22:25:00 63° NNE 22:25:00 63° NNE 22:29:42 10° NNE
USA 245 4.2 22:24:53 81° SSE 22:25:12 89° ENE 22:31:35 10° NNW
MetOp-B 4.2 22:25:30 70° SW 22:25:45 72° WSW 22:31:07 10° NNW
Cosmos 2227 Rocket 4.5 22:35:42 10° NNE 22:38:01 12° NE 22:38:07 12° NE
CZ-3B DEB 3.6 22:35:02 10° WNW 22:39:50 22° NNW 22:40:51 20° N
Cosmos 2233 Rocket 4.0 22:39:16 68° SW 22:39:54 75° W 22:46:04 10° N
USA 267 3.3 22:40:51 60° ENE 22:41:25 63° NNE 22:47:52 10° NW
ERS-1 Rocket 4.4 22:43:15 29° WSW 22:44:09 30° W 22:48:36 10° NW
Cosmos 1943 Rocket 4.1 22:51:45 20° NNE 22:51:45 20° NNE 22:53:22 10° NNE
H-2A R/B 2.8 22:52:16 51° NNW 22:52:16 51° NNW 22:56:11 10° NNW
ATLAS 5 CENTAUR R/B 4.3 22:47:12 10° W 22:50:59 21° NNW 22:55:03 10° NNE
CZ-4C R/B 3.7 23:18:41 31° NNE 23:18:41 31° NNE 23:22:07 10° NNE
ATLAS 3B R/B 4.3 23:41:20 24° NE 23:41:20 24° NE 23:43:52 10° NE
Lacrosse 5 4.2 23:37:26 10° NW 23:40:27 20° N 23:40:27 20° N
Terra 4.2 23:48:50 20° NW 23:48:50 20° NW 23:50:24 10° NNW
USA 215 4.0 23:44:44 10° NE 23:50:56 47° NNW 23:57:07 10° W
